N215D KMIA-KMCO

Flight info

Callsign N215D
Flight time 0h 38m
Altitude 22000
Route FLMGO2 WAPOM RIDES2
Aircraft C750/M-SBDE3FGHRWXY/S

Departure

Time 2026-05-03 22:01
Airport Miami International Airport (KMIA)

Arrival

Time 2026-05-03 22:39
Airport Orlando International Airport (KMCO)
Time Latitude Longitude Altitude Speed Heading
2026-05-03 21:35 25.80673 -80.29123 13 ft 0 kts 190°
2026-05-03 21:49 25.80669 -80.29124 13 ft 3 kts 189°
2026-05-03 21:49 25.80629 -80.29130 13 ft 8 kts 185°
2026-05-03 21:50 25.80559 -80.29134 13 ft 11 kts 179°
2026-05-03 21:50 25.80493 -80.29151 14 ft 8 kts 232°
2026-05-03 21:50 25.80465 -80.29204 15 ft 8 kts 240°
2026-05-03 21:50 25.80440 -80.29267 15 ft 11 kts 256°
2026-05-03 21:51 25.80433 -80.29358 14 ft 12 kts 267°
2026-05-03 21:51 25.80428 -80.29452 14 ft 14 kts 267°
2026-05-03 21:51 25.80422 -80.29594 15 ft 22 kts 269°
2026-05-03 21:51 25.80418 -80.29759 17 ft 15 kts 266°
2026-05-03 21:52 25.80413 -80.29915 15 ft 26 kts 268°
2026-05-03 21:52 25.80395 -80.30045 15 ft 11 kts 236°
2026-05-03 21:52 25.80358 -80.30063 14 ft 12 kts 186°
2026-05-03 21:52 25.80297 -80.30015 15 ft 10 kts 96°
2026-05-03 21:53 25.80297 -80.30009 15 ft 0 kts 85°
2026-05-03 22:00 25.80303 -80.29851 14 ft 72 kts 87°
2026-05-03 22:01 25.80338 -80.28928 161 ft 144 kts 88°
2026-05-03 22:01 25.80394 -80.27747 755 ft 162 kts 84°
2026-05-03 22:01 25.80480 -80.26416 1381 ft 182 kts 86°
2026-05-03 22:01 25.80514 -80.24940 2042 ft 200 kts 89°
2026-05-03 22:02 25.80533 -80.23317 2695 ft 218 kts 89°
2026-05-03 22:02 25.80559 -80.21579 3347 ft 232 kts 89°
2026-05-03 22:02 25.80589 -80.19741 3978 ft 245 kts 89°
2026-05-03 22:02 25.80910 -80.17847 4500 ft 258 kts 64°
2026-05-03 22:03 25.82179 -80.16386 4978 ft 275 kts 28°
2026-05-03 22:03 25.84008 -80.15871 5518 ft 273 kts
2026-05-03 22:03 25.85937 -80.15829 6207 ft 279 kts 356°
2026-05-03 22:03 25.87878 -80.15812 6881 ft 286 kts 357°
2026-05-03 22:04 25.89897 -80.15901 6947 ft 291 kts 345°
2026-05-03 22:04 25.91797 -80.16541 7003 ft 283 kts 338°
2026-05-03 22:04 25.93675 -80.17230 6999 ft 284 kts 338°
2026-05-03 22:04 25.95562 -80.17887 6982 ft 283 kts 339°
2026-05-03 22:05 25.97428 -80.18523 7008 ft 279 kts 339°
2026-05-03 22:05 25.99162 -80.19356 7395 ft 272 kts 322°
2026-05-03 22:05 26.00577 -80.20744 7870 ft 272 kts 313°
2026-05-03 22:05 26.01991 -80.22168 8478 ft 275 kts 314°
2026-05-03 22:06 26.03439 -80.23585 9116 ft 279 kts 315°
2026-05-03 22:06 26.04879 -80.25005 9753 ft 281 kts 314°
2026-05-03 22:06 26.06348 -80.26468 10353 ft 288 kts 314°
2026-05-03 22:06 26.07879 -80.27997 10957 ft 304 kts 314°
2026-05-03 22:07 26.09501 -80.29606 11578 ft 318 kts 314°
2026-05-03 22:07 26.11185 -80.31276 12217 ft 330 kts 314°
2026-05-03 22:07 26.12932 -80.33013 12848 ft 343 kts 314°
2026-05-03 22:07 26.14735 -80.34806 13500 ft 352 kts 314°
2026-05-03 22:08 26.16579 -80.36638 14116 ft 357 kts 314°
2026-05-03 22:08 26.18443 -80.38492 14695 ft 361 kts 314°
2026-05-03 22:08 26.20326 -80.40368 15336 ft 366 kts 314°
2026-05-03 22:08 26.22254 -80.42243 15981 ft 369 kts 316°
2026-05-03 22:09 26.24484 -80.43740 16622 ft 380 kts 328°
2026-05-03 22:09 26.26891 -80.44992 17327 ft 384 kts 329°
2026-05-03 22:09 26.29323 -80.46280 18055 ft 389 kts 328°
2026-05-03 22:10 26.34252 -80.48920 19368 ft 397 kts 328°
2026-05-03 22:10 26.36769 -80.50250 20023 ft 401 kts 328°
2026-05-03 22:10 26.39301 -80.51593 20693 ft 405 kts 327°
2026-05-03 22:10 26.41828 -80.52943 21369 ft 410 kts 327°
2026-05-03 22:11 26.44418 -80.54326 21990 ft 417 kts 327°
2026-05-03 22:11 26.47058 -80.55731 22035 ft 419 kts 327°
2026-05-03 22:11 26.49784 -80.56900 22021 ft 424 kts 336°
2026-05-03 22:11 26.52637 -80.57784 22028 ft 426 kts 337°
2026-05-03 22:12 26.54526 -80.58377 22024 ft 425 kts 337°
2026-05-03 22:12 26.57364 -80.59292 22039 ft 424 kts 336°
2026-05-03 22:12 26.61171 -80.60514 22034 ft 425 kts 337°
2026-05-03 22:12 26.63059 -80.61107 22038 ft 425 kts 337°
2026-05-03 22:13 26.65910 -80.62005 22045 ft 425 kts 337°
2026-05-03 22:13 26.68753 -80.62912 22046 ft 425 kts 336°
2026-05-03 22:13 26.71604 -80.63825 22041 ft 425 kts 336°
2026-05-03 22:13 26.74453 -80.64730 22053 ft 426 kts 337°
2026-05-03 22:14 26.77310 -80.65638 22046 ft 426 kts 336°
2026-05-03 22:14 26.80136 -80.66539 22054 ft 426 kts 336°
2026-05-03 22:14 26.82986 -80.67448 22058 ft 425 kts 336°
2026-05-03 22:14 26.85833 -80.68357 22051 ft 425 kts 336°
2026-05-03 22:15 26.88674 -80.69264 22055 ft 425 kts 336°
2026-05-03 22:15 26.91521 -80.70189 22045 ft 423 kts 335°
2026-05-03 22:15 26.94320 -80.71242 22042 ft 423 kts 333°
2026-05-03 22:15 26.97097 -80.72307 22052 ft 422 kts 333°
2026-05-03 22:16 26.99892 -80.73365 22047 ft 423 kts 334°
2026-05-03 22:16 27.02695 -80.74385 22040 ft 425 kts 336°
2026-05-03 22:16 27.05569 -80.75103 22040 ft 430 kts 342°
2026-05-03 22:16 27.08528 -80.75678 22046 ft 431 kts 342°
2026-05-03 22:17 27.11447 -80.76374 22037 ft 427 kts 338°
2026-05-03 22:17 27.14236 -80.77424 22038 ft 419 kts 330°
2026-05-03 22:17 27.16897 -80.78723 22040 ft 416 kts 327°
2026-05-03 22:17 27.19547 -80.80092 22048 ft 429 kts 328°
2026-05-03 22:18 27.22409 -80.81381 22052 ft 454 kts 332°
2026-05-03 22:18 27.25446 -80.82601 22055 ft 471 kts 333°
2026-05-03 22:18 27.28415 -80.83859 22049 ft 450 kts 331°
2026-05-03 22:18 27.31350 -80.85230 22051 ft 464 kts 330°
2026-05-03 22:19 27.34503 -80.86296 22043 ft 478 kts 339°
2026-05-03 22:19 27.37759 -80.87224 22055 ft 482 kts 338°
2026-05-03 22:19 27.40958 -80.88198 22053 ft 483 kts 338°
2026-05-03 22:19 27.44239 -80.89206 22057 ft 484 kts 338°
2026-05-03 22:20 27.47503 -80.90165 22061 ft 485 kts 339°
2026-05-03 22:20 27.50728 -80.91102 22061 ft 485 kts 338°
2026-05-03 22:20 27.53985 -80.92076 22066 ft 484 kts 338°
2026-05-03 22:20 27.57239 -80.93062 22068 ft 484 kts 338°
2026-05-03 22:21 27.60493 -80.94032 22073 ft 484 kts 338°
2026-05-03 22:21 27.63754 -80.94995 22073 ft 484 kts 338°
2026-05-03 22:21 27.67007 -80.95965 22072 ft 484 kts 338°
2026-05-03 22:21 27.70262 -80.96944 22073 ft 483 kts 338°
2026-05-03 22:22 27.73523 -80.97921 22071 ft 483 kts 338°
2026-05-03 22:22 27.76777 -80.98890 22072 ft 483 kts 338°
2026-05-03 22:22 27.79935 -80.99821 22065 ft 450 kts 338°
2026-05-03 22:22 27.82854 -81.00683 22057 ft 420 kts 337°
2026-05-03 22:23 27.85642 -81.01540 22061 ft 421 kts 336°
2026-05-03 22:23 27.88475 -81.02411 22063 ft 421 kts 337°
2026-05-03 22:23 27.91314 -81.03252 22064 ft 422 kts 337°
2026-05-03 22:23 27.94096 -81.04141 22048 ft 400 kts 333°
2026-05-03 22:24 27.96570 -81.05204 22058 ft 364 kts 330°
2026-05-03 22:24 27.98864 -81.06167 21763 ft 343 kts 330°
2026-05-03 22:24 28.01077 -81.07100 21036 ft 338 kts 330°
2026-05-03 22:24 28.03275 -81.08040 20206 ft 336 kts 330°
2026-05-03 22:25 28.05365 -81.08922 19336 ft 320 kts 330°
2026-05-03 22:25 28.07413 -81.09781 18470 ft 307 kts 329°
2026-05-03 22:25 28.09390 -81.10621 17497 ft 299 kts 329°
2026-05-03 22:25 28.11292 -81.11419 16539 ft 292 kts 330°
2026-05-03 22:26 28.13198 -81.12145 15582 ft 290 kts 338°
2026-05-03 22:26 28.15274 -81.12040 14516 ft 311 kts
2026-05-03 22:26 28.17223 -81.10935 13574 ft 313 kts 26°
2026-05-03 22:26 28.19026 -81.09616 12607 ft 307 kts 36°
2026-05-03 22:27 28.20258 -81.07636 11582 ft 309 kts 64°
2026-05-03 22:27 28.20986 -81.05339 10724 ft 313 kts 72°
2026-05-03 22:27 28.21630 -81.02970 9895 ft 318 kts 72°
2026-05-03 22:27 28.22268 -81.00547 8989 ft 323 kts 73°
2026-05-03 22:28 28.22643 -80.98048 7978 ft 322 kts 93°
2026-05-03 22:28 28.22019 -80.95739 7086 ft 296 kts 125°
2026-05-03 22:28 28.20567 -80.94382 6924 ft 260 kts 161°
2026-05-03 22:28 28.18880 -80.94228 6633 ft 238 kts 197°
2026-05-03 22:29 28.17558 -80.95217 6162 ft 227 kts 234°
2026-05-03 22:29 28.16932 -80.96821 5803 ft 219 kts 251°
2026-05-03 22:29 28.16502 -80.98458 5495 ft 216 kts 253°
2026-05-03 22:29 28.16072 -81.00096 5164 ft 216 kts 253°
2026-05-03 22:30 28.15639 -81.01729 4826 ft 216 kts 252°
2026-05-03 22:30 28.15310 -81.03367 4409 ft 217 kts 266°
2026-05-03 22:30 28.15557 -81.05066 4006 ft 216 kts 283°
2026-05-03 22:30 28.15945 -81.06676 4016 ft 210 kts 283°
2026-05-03 22:31 28.16326 -81.08290 4000 ft 213 kts 282°
2026-05-03 22:31 28.16713 -81.09920 3865 ft 217 kts 283°
2026-05-03 22:31 28.17108 -81.11586 3513 ft 219 kts 283°
2026-05-03 22:31 28.17485 -81.13236 3154 ft 219 kts 283°
2026-05-03 22:32 28.17854 -81.14885 3011 ft 206 kts 283°
2026-05-03 22:32 28.18206 -81.16490 3023 ft 211 kts 283°
2026-05-03 22:32 28.18559 -81.18072 3012 ft 210 kts 283°
2026-05-03 22:32 28.18921 -81.19702 3022 ft 212 kts 283°
2026-05-03 22:33 28.19280 -81.21315 3014 ft 212 kts 283°
2026-05-03 22:33 28.19639 -81.22933 3021 ft 213 kts 283°
2026-05-03 22:33 28.20009 -81.24551 3022 ft 213 kts 283°
2026-05-03 22:33 28.20365 -81.26153 3020 ft 209 kts 282°
2026-05-03 22:34 28.20731 -81.27766 3032 ft 213 kts 283°
2026-05-03 22:34 28.21117 -81.29375 3010 ft 210 kts 288°
2026-05-03 22:34 28.21920 -81.30770 3019 ft 213 kts 306°
2026-05-03 22:34 28.23081 -81.31792 2942 ft 219 kts 338°
2026-05-03 22:35 28.24615 -81.31860 2869 ft 226 kts 360°
2026-05-03 22:35 28.26178 -81.31952 2650 ft 219 kts 352°
2026-05-03 22:35 28.27636 -81.32144 2430 ft 200 kts 350°
2026-05-03 22:35 28.28949 -81.32321 2311 ft 180 kts 349°
2026-05-03 22:36 28.30161 -81.32469 2307 ft 175 kts 349°
2026-05-03 22:36 28.31376 -81.32616 2300 ft 176 kts 350°
2026-05-03 22:36 28.32553 -81.32744 2277 ft 174 kts 352°
2026-05-03 22:36 28.33795 -81.32686 1974 ft 179 kts
2026-05-03 22:37 28.34979 -81.32580 1644 ft 161 kts 358°
2026-05-03 22:37 28.36030 -81.32560 1322 ft 142 kts 356°
2026-05-03 22:37 28.36990 -81.32548 881 ft 132 kts 359°
2026-05-03 22:37 28.37839 -81.32603 739 ft 118 kts 359°
2026-05-03 22:38 28.38671 -81.32625 635 ft 120 kts
2026-05-03 22:38 28.39509 -81.32658 539 ft 123 kts
2026-05-03 22:38 28.40354 -81.32660 423 ft 123 kts
2026-05-03 22:38 28.41208 -81.32663 223 ft 118 kts
2026-05-03 22:39 28.41992 -81.32668 112 ft 103 kts
2026-05-03 22:39 28.42619 -81.32664 99 ft 77 kts 357°
2026-05-03 22:39 28.42896 -81.32702 104 ft 20 kts 313°
2026-05-03 22:39 28.42909 -81.32809 103 ft 10 kts 269°
2026-05-03 22:40 28.42909 -81.32835 103 ft 0 kts 269°
2026-05-03 22:40 28.42909 -81.32868 102 ft 6 kts 270°
2026-05-03 22:41 28.42933 -81.32918 103 ft 9 kts 333°
2026-05-03 22:41 28.42998 -81.32923 105 ft 8 kts 359°
2026-05-03 22:41 28.43063 -81.32923 107 ft 11 kts
2026-05-03 22:41 28.43153 -81.32924 107 ft 13 kts
2026-05-03 22:42 28.43247 -81.32926 106 ft 14 kts 360°
2026-05-03 22:42 28.43331 -81.32928 105 ft 7 kts 349°
2026-05-03 22:42 28.43347 -81.32965 105 ft 5 kts 271°
2026-05-03 22:42 28.43348 -81.33021 106 ft 10 kts 268°
2026-05-03 22:43 28.43310 -81.33082 106 ft 7 kts 253°
2026-05-03 22:43 28.43294 -81.33116 106 ft 3 kts 182°
2026-05-03 22:43 28.43292 -81.33115 106 ft 0 kts 178°